This is the latest recevied weather packets stored in our database for station/object KC5DP. If no packets are shown the sender has not sent any weather packets the latest 10 day(s).
| Time | Temp. | Humidity | Pressure | Rain* | Wind** | Luminosity | Snow |
|---|---|---|---|---|---|---|---|
| 1777558265 | 20° C | 99% | 1012 hPa | 1.27 mm | - | 68 W/m² | - |
| 1777557961 | 20° C | 99% | 1012 hPa | 0 mm | - | 66 W/m² | - |
| 1777557658 | 20° C | 99% | 1011.8 hPa | 0 mm | - | 66 W/m² | - |
| 1777557354 | 19.44° C | 99% | 1011.9 hPa | 0 mm | - | 50 W/m² | - |
| 1777557051 | 20° C | 99% | 1011.7 hPa | 0 mm | - | 44 W/m² | - |
| 1777556746 | 20° C | 99% | 1011.7 hPa | 0 mm | - | 61 W/m² | - |
| 1777556444 | 19.44° C | 99% | 1011.6 hPa | 0 mm | - | 63 W/m² | - |
| 1777556143 | 19.44° C | 99% | 1011.5 hPa | 0 mm | - | 62 W/m² | - |
| 1777555839 | 19.44° C | 99% | 1011.5 hPa | 0 mm | - | 55 W/m² | - |
| 1777555535 | 20° C | 99% | 1011.6 hPa | 0 mm | - | 57 W/m² | - |
| 1777555232 | 19.44° C | 99% | 1011.4 hPa | 0 mm | - | 49 W/m² | - |
| 1777554929 | 19.44° C | 99% | 1011.6 hPa | 0 mm | - | 37 W/m² | - |
| 1777554625 | 19.44° C | 99% | 1011.6 hPa | 0 mm | - | 28 W/m² | - |
| 1777554322 | 19.44° C | 99% | 1011.5 hPa | 0 mm | - | 35 W/m² | - |
| 1777554019 | 19.44° C | 99% | 1011.5 hPa | 0 mm | - | 44 W/m² | - |
| 1777553715 | 19.44° C | 99% | 1011.6 hPa | 0 mm | - | 32 W/m² | - |
| 1777553413 | 19.44° C | 99% | 1011.5 hPa | 0 mm | - | 29 W/m² | - |
| 1777553109 | 19.44° C | 99% | 1011.2 hPa | 0 mm | - | 44 W/m² | - |
| 1777552809 | 19.44° C | 99% | 1011 hPa | 0 mm | - | 44 W/m² | - |
| 1777552504 | 19.44° C | 99% | 1011 hPa | 0 mm | - | 34 W/m² | - |
| 1777552201 | 19.44° C | 99% | 1011.2 hPa | 0 mm | - | 27 W/m² | - |
| 1777551898 | 19.44° C | 99% | 1011.1 hPa | 0 mm | - | 27 W/m² | - |
| 1777551595 | 19.44° C | 99% | 1011 hPa | 0 mm | - | 42 W/m² | - |
| 1777551293 | 20° C | 99% | 1010.9 hPa | 0 mm | - | 57 W/m² | - |
| 1777550989 | 19.44° C | 99% | 1010.8 hPa | 0 mm | - | 79 W/m² | - |
* Rain latest hour (hover to see other rain measurements)
** Current wind speed in m/s (hover to see current wind gust speed)